Location: Alulod
(14.2076°N, 120.8898°E)
Time: 02:43:55
(UTC+00:00)

Cosmos 2098 Rocket - Pass Details

Date: 13 December 2025
Orbit: 349 x 865 km, 82.9° (Epoch: 15 January)

Event Time Altitude Azimuth Distance (km) Brightness Sun altitude
Exits shadow 20:16:48 69° 205° (SSW) 837 3.5 -26.9°
Drops below altitude 10° 20:21:12 10° 181° (S) 2,207 6.1 -25.9°
Sets 20:23:22 0° 179° (S) 3,050 6.9 -25.4°
